Regional Weather Roundup
Issued by NWS

Home | Current Version | Previous Version | Text Only | Print | Product List | Glossary On
Versions: 1 2 3 4 5 6 7 8 9 10 11 12 13 14 15 16 17 18 19 20 21 22 23 24 25 26 27 28 29 30 31 32 33 34 35 36 37 38 39 40 41 42 43 44 45 46 47 48 49 50
000
ASUS43 KLSX 272359
RWRMO

WEATHER SUMMARY FOR MISSOURI
NATIONAL WEATHER SERVICE SPRINGFIELD MO
600 PM CST TUE JAN 27 2015

NOTE: "FAIR" INDICATES FEW OR NO CLOUDS BELOW 12,000 FEET WITH NO
       SIGNIFICANT WEATHER AND/OR OBSTRUCTIONS TO VISIBILITY.
       CURRENT SKY AND/OR WEATHER CONDITIONS ARE NOT AVAILABLE FOR
       CHILLICOTHE AND FARMINGTON.

MOZ001>031-035>038-043-044-053-054-280100-
...NORTHERN AND WESTERN MISSOURI...

CITY           SKY/WX    TMP DP  RH WIND       PRES   REMARKS
KANSAS CTY INT CLEAR     50  30  46 E9        30.07F
6HR MIN TEMP:  48; 6HR MAX TEMP:  55;

KANSAS C DTWN  CLEAR     53  31  42 SE9       30.08S
6HR MIN TEMP:  49; 6HR MAX TEMP:  58;

LEE`S SUMMIT   CLEAR     49  30  48 E6        30.09F
6HR MIN TEMP:  48; 6HR MAX TEMP:  57;

ST JOSEPH        N/A     48  31  51 SE9       30.08R
6HR MIN TEMP:  47; 6HR MAX TEMP:  56;

CHILLICOTHE      N/A     44  32  62 E5        30.14S
6HR MIN TEMP:  44; 6HR MAX TEMP:  51;

KIRKSVILLE     CLEAR     39  32  76 E5        30.17R
6HR MIN TEMP:  37; 6HR MAX TEMP:  45;


$$
MOZ066>068-077>081-088>096-101>105-280100-
...SOUTHWEST MISSOURI...

CITY           SKY/WX    TMP DP  RH WIND       PRES   REMARKS
SPRINGFIELD    CLEAR     51  27  39 E3        30.10F
6HR MIN TEMP:  51; 6HR MAX TEMP:  60;

JOPLIN         CLEAR     59  27  29 SE3       30.08F
6HR MIN TEMP:  54; 6HR MAX TEMP:  64;


$$
MOZ032>034-039>042-045>050-055>058-069>072-280100-
...CENTRAL MISSOURI...

CITY           SKY/WX    TMP DP  RH WIND       PRES   REMARKS
COLUMBIA       CLEAR     44  31  60 E7        30.16R
6HR MIN TEMP:  44; 6HR MAX TEMP:  51;

JEFFERSON CITY CLEAR     48  32  53 E5        30.16S
6HR MIN TEMP:  45; 6HR MAX TEMP:  53;

ROLLA          CLEAR     41  30  65 CALM      30.14R
SEDALIA        CLEAR     46  31  55 E6        30.14S
6HR MIN TEMP:  46; 6HR MAX TEMP:  53;

OSAGE BEACH    CLEAR     48  28  46 E5        30.14F

$$
MOZ051-052-059>065-280100-
...EAST CENTRAL MISSOURI...

CITY           SKY/WX    TMP DP  RH WIND       PRES   REMARKS
ST LOUIS INTL  PTCLDY    37  29  72 NE12      30.21R WCI  29
6HR MIN TEMP:  37; 6HR MAX TEMP:  46;

SPIRIT OF STL  CLEAR     39  30  70 E5        30.19R
6HR MIN TEMP:  38; 6HR MAX TEMP:  48;

ST CHARLES     CLEAR     33  29  85 E12       30.21R WCI  24
6HR MIN TEMP:  33; 6HR MAX TEMP:  44;


$$
MOZ072>076-082>087-097>100-106>115-280100-
...SOUTH CENTRAL AND SOUTHEAST MISSOURI...

CITY           SKY/WX    TMP DP  RH WIND       PRES   REMARKS
CAPE GIRARDEAU CLEAR     39  31  72 NE8       30.20R
6HR MIN TEMP:  39; 6HR MAX TEMP:  47;

FARMINGTON     CLEAR     39  30  70 MISG      30.21R
6HR MIN TEMP:  39; 6HR MAX TEMP:  48;

POPLAR BLUFF   CLEAR     46  33  60 E5        30.17R
6HR MIN TEMP:  46; 6HR MAX TEMP:  54;

WEST PLAINS    CLEAR     48  27  44 CALM      30.15R
6HR MIN TEMP:  47; 6HR MAX TEMP:  59;


$$



USA.gov is the U.S. government's official web portal to all federal, state and local government web resources and services.